Temperature
18 18 18 18 18 18 18 18 18 18 18 18 18 18 18 18 18 18 18 18 18 18 18 18 18 18 18 18 18 18 18 18 18 18 18 18 18 18 18 18 18 18 18
18 18 18 18 18 18 18 18 18 18 18 18 18 18 18 18 18 18 18 18 18 18 18 18 18 18 18 18 18 18 18 18 18 18 18 18 18 18 18 18 18 18 18
18 18 18 18 18 18 18 18 18 18 18 18 18 18 18 18 18 18 18 18 18 18 18 18 18 18 18 18 18 18 18 18 18 18 18 18 18 18 18 18 18 18 18
18 18 18 17 17 17 17 17 17 17 17 17 17 17 17 17 17 17 17 17 17 17 17 17 18 17 18 17 17 17 17 17 17 17 17 18 17 18 18 18 18 18 18
18 18 17 17 17 17 17 17 17 17 17 17 17 17 17 17 17 17 17 17 17 17 17 17 17 17 17 17 17 17 17 17 17 17 17 17 17 17 17 18 18 18 18
18 18 17 17 17 17 17 17 17 17 17 17 17 17 17 17 17 17 17 17 17 17 17 17 17 17 17 17 17 17 17 17 17 17 17 17 17 17 17 17 17 17 17
18 17 17 17 17 17 17 17 17 17 17 17 17 16 16 16 17 17 17 17 17 17 17 17 17 17 17 17 16 17 17 17 17 17 17 17 17 17 17 17 17 17 17
18 18 17 17 17 17 17 17 17 17 17 16 16 16 16 16 16 16 16 16 16 17 17 17 17 17 16 16 16 16 16 17 17 17 17 17 17 17 17 17 17 17 17
18 18 17 17 17 17 17 17 17 17 16 16 16 16 16 16 16 16 16 16 16 16 16 16 17 16 16 16 16 16 16 16 16 17 17 17 17 17 17 17 17 17 17
18 17 17 17 17 17 17 17 16 16 16 16 16 16 16 16 16 16 16 16 16 16 16 16 16 16 16 16 16 16 16 16 16 16 16 16 16 16 17 17 16 16 17
17 17 17 17 17 17 17 17 16 16 16 16 16 16 16 16 16 16 16 16 16 16 16 16 16 16 16 16 16 16 16 16 16 16 16 16 16 16 16 16 16 16 17
17 17 17 17 17 17 17 17 16 16 16 16 16 16 16 16 16 16 16 16 16 16 16 16 16 16 16 16 16 16 16 16 16 16 16 16 16 16 16 16 16 16 16
18 17 17 17 17 17 17 17 16 16 16 16 16 16 16 16 16 16 16 16 16 16 16 16 16 16 16 16 16 16 16 16 16 16 16 16 16 16 16 16 16 16 16
18 18 17 17 17 17 17 17 16 16 16 16 16 16 16 16 16 16 16 16 16 16 16 16 16 16 16 16 16 16 16 16 16 16 16 15 16 16 16 16 16 16 16
18 18 18 17 17 17 17 17 16 16 16 16 16 16 16 16 16 16 16 16 16 16 16 16 16 16 16 15 15 16 16 15 15 15 15 15 15 15 15 16 16 16 16
18 18 18 18 17 17 17 17 17 16 16 16 16 16 16 16 16 16 16 16 16 16 16 16 16 16 16 15 15 15 15 15 15 15 15 15 15 15 15 15 15 15 15
18 18 18 17 17 17 17 17 16 16 16 16 16 16 16 16 16 16 16 16 16 16 16 16 16 16 15 15 15 15 15 15 15 15 15 15 15 15 15 15 15 15 15
18 18 18 17 17 17 17 17 16 16 16 16 16 16 16 16 16 16 16 16 16 16 16 16 16 16 15 15 15 15 15 15 15 15 15 15 15 15 15 15 15 15 15
18 18 18 17 17 17 17 17 16 16 16 16 16 16 16 16 16 16 16 16 16 16 16 15 15 15 15 15 15 15 15 15 15 15 15 15 15 15 15 15 15 15 15
18 18 18 17 17 17 17 17 16 16 16 16 16 16 16 16 16 16 16 16 16 16 16 15 15 15 15 15 15 15 15 15 14 14 14 14 14 14 14 14 14 14 15
18 18 18 18 17 17 17 17 16 16 16 16 16 16 16 16 16 16 16 16 15 15 15 15 15 15 15 15 15 15 14 14 14 14 14 14 14 14 14 14 14 14 14
18 18 18 18 17 17 17 17 16 16 16 16 16 16 16 16 16 16 16 16 15 15 15 15 15 15 15 15 15 15 14 14 14 14 14 14 14 14 14 14 14 14 14
18 18 18 18 17 17 17 16 16 16 16 16 16 16 16 16 16 16 16 15 15 15 15 15 15 15 15 15 15 15 15 14 14 14 14 14 14 14 14 14 14 14 14
19 18 18 18 17 17 17 16 16 16 16 16 16 16 16 16 16 16 15 15 15 15 15 15 15 15 15 15 15 15 15 15 14 14 14 14 14 14 14 14 14 14 14
19 18 18 17 17 17 17 16 16 16 16 16 16 15 16 16 16 15 15 15 15 15 15 15 15 15 15 15 15 15 15 15 15 15 14 14 14 13 14 13 14 14 14
18 18 18 17 17 17 17 16 16 16 16 16 16 15 15 15 16 15 15 15 15 15 15 15 15 15 15 15 15 15 15 15 15 15 14 14 14 13 13 13 13 14 14
Wind_Speed
2 3 8 8 8 9 9 9 10 10 11 11 12 12 12 12 12 12 12 11 11 10 10 9 9 9 9 9 8 8 9 8 9 8 8 8 7 7 6 6 6 5 5
5 6 8 8 8 9 9 9 10 10 10 11 11 11 11 11 11 12 12 11 10 10 9 9 9 9 9 8 8 8 8 8 8 8 7 7 7 7 6 6 6 5 5
7 7 8 9 9 9 9 10 10 10 10 10 11 11 11 11 11 11 11 10 10 9 9 9 8 8 8 8 8 8 8 8 8 8 7 6 6 7 7 6 6 6 6
8 7 8 9 9 9 10 10 10 10 11 11 10 10 10 10 10 10 10 10 9 9 8 8 8 8 8 8 8 7 8 7 8 8 7 6 6 7 7 7 6 6 6
7 8 9 10 10 10 10 10 10 10 10 10 10 10 10 10 10 10 10 9 9 8 8 8 7 7 7 7 8 8 8 9 9 9 8 8 7 8 8 8 7 7 7
7 8 10 10 10 10 10 10 10 10 10 10 10 9 10 10 10 10 10 9 9 8 7 7 7 7 8 8 8 8 8 10 9 9 8 8 7 9 9 8 8 8 7
7 7 9 10 10 10 10 10 10 10 10 10 10 9 9 10 10 10 9 9 8 7 7 6 6 7 8 8 8 9 9 10 10 8 7 7 8 9 9 8 8 7 7
8 7 9 10 10 10 10 10 10 10 10 10 10 9 9 9 9 9 8 8 7 7 6 6 6 6 7 8 9 9 10 10 9 8 7 7 8 9 9 8 8 8 7
8 7 7 8 9 10 10 10 10 10 10 10 9 8 8 9 9 8 8 7 7 6 6 5 5 5 6 7 9 10 11 11 9 7 8 7 8 9 9 9 8 7 7
6 5 5 5 6 7 8 9 9 9 8 8 8 7 7 7 7 7 6 6 6 5 5 4 5 5 6 8 10 11 12 11 10 8 7 7 9 9 9 9 8 7 7
6 4 4 4 5 5 5 7 7 7 7 7 6 5 5 4 4 4 4 4 4 4 4 5 5 6 8 9 11 12 11 9 9 8 7 8 9 9 9 8 8 8 8
7 5 4 5 5 6 5 5 4 4 4 4 4 4 3 3 3 3 3 3 4 5 5 6 6 6 8 8 9 10 9 9 8 7 8 10 10 10 9 9 9 9 8
7 7 6 5 6 5 3 4 3 2 3 2 2 3 4 3 2 2 2 3 4 5 5 5 5 5 6 6 7 8 8 8 7 7 9 11 11 10 9 9 9 9 9
7 6 6 6 5 5 5 3 3 2 2 2 3 4 5 3 2 2 2 2 3 4 4 5 5 6 7 8 9 8 8 8 8 8 9 11 12 12 10 10 10 10 10
8 7 7 7 6 4 4 3 3 2 2 2 3 4 6 4 2 2 2 2 3 4 4 4 4 5 6 7 8 8 7 8 8 9 9 11 12 12 12 11 11 11 12
8 8 6 7 6 5 3 3 3 4 4 4 4 5 7 6 4 3 3 3 4 5 5 5 5 5 5 6 6 7 6 7 7 8 8 9 11 12 13 13 13 13 14
9 8 7 7 6 6 4 3 4 4 5 3 3 5 6 7 6 5 3 3 4 6 7 7 6 6 5 5 6 5 5 6 7 7 7 7 9 11 12 13 14 15 15
9 8 7 7 7 6 5 4 3 4 5 3 4 6 6 6 7 6 3 3 5 6 6 4 4 5 5 5 4 4 4 4 6 6 6 6 7 8 10 13 14 15 16
9 9 7 7 7 6 5 4 4 5 4 4 5 5 5 6 7 6 4 4 6 5 4 4 4 4 4 4 4 4 4 4 4 6 5 5 6 7 8 10 12 14 15
8 9 8 7 7 6 5 4 3 4 3 4 4 4 5 6 7 7 5 5 6 4 4 4 4 4 3 3 5 5 4 3 4 4 3 4 5 7 8 9 9 10 14
8 9 8 7 5 5 4 4 3 3 2 2 2 5 6 6 7 6 4 4 4 4 4 4 4 4 3 3 4 4 4 5 5 4 3 4 5 6 8 8 9 9 10
10 9 8 8 6 5 4 4 3 3 2 1 1 3 5 6 6 6 5 4 4 4 4 4 4 3 2 2 3 3 3 4 4 4 3 4 4 6 6 8 9 9 10
10 10 10 8 7 6 5 4 4 4 3 2 2 1 2 5 6 6 5 4 4 4 4 3 3 4 2 1 1 3 3 2 1 3 4 4 4 4 4 5 7 8 9
11 10 10 9 7 6 7 7 6 4 3 2 2 1 1 3 5 6 5 5 4 3 4 3 3 3 3 1 1 1 2 4 3 1 3 4 5 5 4 4 5 6 7
10 10 10 9 7 6 6 7 7 4 3 2 2 3 2 2 3 5 5 5 4 3 3 3 3 3 2 2 1 1 2 3 3 3 1 2 3 3 3 3 4 4 6
8 9 9 10 7 6 7 7 7 7 5 5 4 3 1 1 1 2 5 4 4 3 3 3 3 4 3 3 2 2 2 3 2 3 3 1 1 2 3 3 3 3 4
Wind_Direction
143 149 126 119 111 108 105 105 106 108 103 98 96 95 94 93 92 93 92 90 87 85 84 80 80 80 78 75 72 73 74 75 78 78 78 78 76 80 79 79 77 82 82
151 142 126 122 116 112 110 107 106 107 104 101 98 97 97 96 95 94 93 91 88 86 85 80 77 77 75 72 69 67 68 69 71 72 75 73 73 75 75 74 76 79 78
134 130 124 124 119 114 111 108 107 108 107 106 101 99 99 98 98 96 93 91 88 85 83 79 73 73 72 68 65 65 68 70 73 71 72 64 65 70 71 72 74 73 71
129 126 124 124 118 115 112 108 108 111 113 111 105 103 101 99 99 98 96 92 88 84 82 79 73 68 66 63 60 64 69 72 78 73 69 62 63 70 69 70 71 71 67
122 125 126 123 118 114 110 108 108 110 112 111 108 104 101 98 99 101 99 96 91 87 83 78 75 68 63 58 58 62 69 76 81 74 71 64 64 70 70 69 67 68 65
121 125 128 125 120 115 111 110 108 110 112 113 110 105 103 102 103 103 100 97 93 88 85 81 75 67 61 60 60 59 70 81 81 71 68 65 64 70 69 65 62 62 59
127 128 129 129 126 122 119 115 111 111 114 114 113 110 107 103 101 100 99 97 95 91 87 84 78 70 65 61 59 64 79 88 83 72 67 62 65 70 67 64 62 60 55
137 133 132 132 131 128 125 123 118 116 119 118 117 113 110 109 105 102 101 99 98 94 90 85 78 74 71 64 64 73 83 87 81 74 65 60 65 67 64 63 61 55 51
134 133 131 133 134 133 131 130 127 125 124 122 122 122 120 116 110 107 108 105 99 96 92 82 70 69 69 64 70 78 81 83 75 66 66 64 69 67 62 59 57 51 49
131 137 137 138 135 135 137 138 137 135 134 129 127 127 124 119 114 114 113 112 103 94 83 77 71 64 66 70 75 80 81 76 67 60 61 69 71 67 62 58 54 50 47
145 154 157 154 149 150 154 147 145 146 145 138 133 127 117 113 117 120 121 120 102 89 74 71 68 66 65 68 72 81 81 76 67 60 60 69 71 67 63 57 54 49 44
160 173 177 175 175 170 167 149 143 144 145 139 137 137 133 133 144 134 126 108 90 81 73 68 64 60 59 63 70 81 84 80 69 60 62 68 68 66 61 56 53 50 44
164 167 175 182 181 176 168 164 161 153 154 159 166 152 140 132 135 126 101 69 65 64 56 55 53 56 68 77 84 90 90 84 73 64 63 66 64 61 59 56 54 49 45
152 159 166 171 166 169 161 164 164 152 151 163 180 164 142 132 127 127 100 85 77 75 66 60 68 70 78 88 97 92 87 83 75 68 64 64 61 58 57 57 56 50 48
153 157 162 161 156 149 145 153 145 149 153 149 144 146 144 137 138 131 113 112 105 96 88 79 80 82 82 84 94 93 90 90 82 71 62 64 63 57 55 55 57 51 47
156 156 159 150 145 133 132 136 135 141 130 116 113 127 136 137 134 116 103 103 102 104 101 95 90 87 81 84 84 88 92 96 90 80 67 59 60 58 54 52 51 50 48
157 152 150 141 132 125 122 119 122 130 115 96 93 109 122 126 125 117 108 98 100 103 98 91 79 79 81 80 77 78 81 85 90 86 77 63 55 54 53 52 50 48 46
155 149 147 138 128 122 119 110 113 120 109 93 89 98 114 119 119 110 102 99 109 100 95 91 84 81 74 76 76 70 67 73 77 85 82 70 60 54 51 54 53 50 47
157 147 142 135 133 132 125 114 110 106 98 91 85 90 111 118 118 115 106 111 112 98 90 99 86 94 91 88 86 66 51 56 58 79 77 70 60 57 53 52 51 50 47
156 146 144 139 136 128 114 99 89 80 74 79 84 89 100 108 114 114 109 106 106 96 87 92 92 79 90 96 85 64 38 38 47 58 69 68 63 64 59 53 48 44 44
154 149 148 145 141 132 123 121 118 116 102 77 79 89 91 102 109 106 105 101 103 106 110 111 100 83 72 86 83 55 27 30 41 41 51 58 57 62 62 57 54 47 42
163 160 155 152 149 144 140 142 142 139 129 122 82 78 88 99 103 110 109 113 112 110 102 97 103 97 75 86 110 94 41 12 14 26 35 54 48 56 60 62 57 52 48
168 169 165 159 150 145 136 116 103 83 70 57 55 45 59 101 107 108 117 116 116 119 124 120 119 118 120 22 97 133 135 185 336 2 19 35 37 42 45 59 57 52 52
174 170 159 155 151 145 134 130 135 136 145 171 162 130 64 93 101 104 109 112 117 118 124 136 125 125 124 93 33 66 142 153 142 61 0 15 28 37 35 53 54 53 55
166 162 156 152 148 145 139 141 139 140 151 146 122 110 75 50 85 103 114 113 112 116 124 120 113 113 122 130 116 95 79 78 96 131 119 2 15 15 23 37 52 49 50
153 150 152 152 153 154 149 148 148 154 152 142 139 136 117 61 46 92 113 110 113 118 125 129 124 122 115 109 107 114 129 126 136 129 137 133 53 355 14 22 32 35 46
Height
1534 1534 1533 1533 1533 1533 1532 1532 1532 1532 1532 1532 1532 1533 1533 1533 1533 1533 1533 1533 1534 1534 1534 1534 1534 1533 1533 1533 1533 1533 1532 1532 1532 1532 1531 1531 1531 1531 1531 1530 1530 1530 1529
1534 1534 1534 1533 1533 1533 1532 1532 1532 1532 1532 1533 1533 1533 1533 1533 1533 1534 1534 1534 1534 1534 1534 1534 1534 1534 1534 1534 1533 1533 1533 1533 1532 1532 1532 1532 1531 1531 1531 1530 1530 1530 1529
1534 1534 1533 1533 1533 1533 1533 1532 1532 1532 1533 1533 1533 1533 1533 1534 1534 1534 1534 1534 1534 1535 1535 1535 1535 1535 1534 1534 1534 1534 1533 1533 1533 1532 1532 1532 1532 1532 1531 1531 1530 1530 1529
1535 1534 1534 1533 1533 1533 1533 1533 1533 1533 1533 1533 1533 1533 1534 1534 1534 1534 1534 1535 1535 1535 1535 1535 1535 1535 1535 1535 1535 1534 1534 1534 1534 1533 1533 1533 1532 1532 1532 1531 1531 1530 1529
1535 1535 1534 1534 1534 1533 1533 1533 1533 1533 1533 1533 1533 1534 1534 1534 1534 1534 1535 1535 1535 1535 1535 1535 1535 1535 1536 1535 1535 1535 1535 1535 1535 1534 1534 1533 1533 1533 1532 1532 1531 1530 1530
1535 1535 1535 1534 1534 1534 1534 1533 1533 1533 1533 1533 1534 1534 1534 1534 1534 1535 1535 1535 1536 1536 1536 1536 1536 1536 1536 1536 1536 1536 1536 1536 1536 1535 1534 1534 1533 1533 1532 1532 1531 1531 1530
1536 1536 1535 1535 1535 1534 1534 1534 1534 1534 1534 1534 1534 1534 1535 1535 1535 1535 1536 1536 1536 1536 1536 1536 1537 1537 1537 1537 1537 1537 1537 1537 1536 1536 1535 1535 1534 1534 1533 1532 1532 1531 1530
1537 1536 1536 1536 1535 1535 1535 1535 1535 1535 1535 1535 1535 1535 1536 1536 1536 1536 1536 1537 1537 1537 1537 1537 1537 1537 1537 1537 1538 1537 1537 1537 1537 1537 1536 1536 1535 1534 1534 1533 1532 1531 1530
1537 1537 1537 1536 1536 1536 1536 1536 1536 1536 1536 1536 1536 1537 1537 1537 1537 1537 1537 1538 1538 1538 1538 1538 1538 1538 1538 1539 1539 1539 1538 1538 1538 1537 1537 1536 1536 1535 1534 1533 1532 1531 1530
1538 1538 1538 1537 1537 1537 1537 1537 1537 1537 1538 1538 1538 1538 1538 1539 1539 1539 1539 1539 1539 1539 1539 1539 1539 1540 1540 1540 1540 1540 1540 1539 1539 1538 1538 1537 1537 1536 1535 1534 1533 1532 1531
1539 1539 1538 1538 1538 1538 1538 1538 1539 1539 1539 1539 1540 1540 1540 1540 1540 1540 1541 1541 1541 1541 1541 1541 1541 1541 1541 1541 1541 1541 1541 1541 1540 1540 1539 1539 1538 1537 1536 1534 1533 1532 1531
1539 1539 1539 1539 1539 1539 1539 1540 1540 1540 1540 1541 1541 1541 1542 1542 1542 1542 1542 1543 1542 1542 1542 1542 1542 1542 1542 1542 1542 1542 1542 1542 1542 1541 1540 1540 1538 1537 1536 1535 1534 1532 1531
1539 1539 1540 1540 1540 1540 1541 1541 1541 1541 1542 1542 1542 1542 1543 1543 1543 1544 1544 1544 1544 1544 1544 1543 1544 1544 1544 1544 1544 1544 1544 1543 1543 1542 1541 1541 1540 1538 1537 1536 1534 1533 1531
1539 1539 1540 1541 1541 1541 1542 1542 1542 1542 1543 1543 1543 1543 1544 1544 1544 1545 1545 1545 1545 1545 1545 1545 1545 1545 1545 1545 1545 1545 1545 1545 1544 1543 1543 1542 1541 1539 1538 1536 1535 1533 1532
1539 1540 1540 1541 1542 1542 1542 1543 1543 1543 1544 1544 1544 1545 1545 1546 1546 1546 1546 1547 1547 1547 1547 1547 1546 1547 1547 1547 1547 1547 1546 1546 1546 1545 1544 1543 1542 1541 1539 1537 1536 1534 1532
1539 1540 1540 1541 1542 1542 1543 1543 1543 1544 1544 1545 1545 1546 1546 1547 1547 1547 1547 1548 1548 1548 1548 1548 1548 1548 1548 1548 1548 1548 1548 1547 1547 1546 1545 1545 1543 1542 1541 1539 1537 1535 1533
1539 1539 1540 1541 1542 1543 1543 1544 1544 1545 1545 1546 1546 1547 1547 1547 1548 1548 1548 1549 1549 1549 1549 1549 1549 1550 1550 1550 1550 1549 1549 1549 1549 1548 1547 1546 1545 1544 1542 1540 1538 1536 1534
1538 1539 1540 1541 1542 1543 1543 1544 1545 1545 1546 1546 1547 1547 1548 1548 1549 1549 1549 1549 1550 1550 1550 1550 1551 1551 1551 1551 1551 1551 1551 1551 1550 1549 1549 1548 1546 1545 1544 1542 1540 1538 1536
1538 1539 1540 1541 1542 1543 1544 1544 1545 1546 1547 1547 1547 1548 1548 1549 1549 1549 1550 1550 1551 1551 1551 1551 1552 1552 1552 1552 1553 1553 1553 1552 1552 1551 1550 1549 1548 1547 1545 1544 1542 1540 1538
1537 1539 1540 1541 1542 1543 1544 1545 1545 1546 1547 1547 1548 1548 1549 1549 1550 1550 1550 1551 1551 1552 1552 1552 1553 1553 1553 1554 1554 1554 1554 1554 1553 1553 1552 1551 1550 1549 1547 1546 1544 1542 1540
1536 1538 1539 1541 1542 1543 1544 1544 1545 1546 1547 1548 1548 1549 1549 1550 1550 1550 1550 1551 1551 1552 1552 1553 1553 1554 1554 1554 1555 1555 1555 1555 1555 1554 1554 1553 1552 1551 1549 1548 1546 1544 1542
1535 1537 1538 1540 1541 1542 1543 1544 1545 1546 1547 1548 1549 1549 1549 1550 1550 1550 1551 1551 1552 1552 1553 1554 1554 1554 1555 1555 1555 1555 1556 1558 1557 1556 1555 1555 1554 1553 1551 1550 1548 1546 1544
1533 1535 1537 1539 1540 1542 1543 1544 1545 1546 1547 1548 1549 1549 1550 1550 1550 1551 1551 1552 1552 1553 1553 1554 1554 1555 1555 1555 1556 1556 1556 1556 1557 1558 1557 1556 1556 1554 1553 1552 1550 1548 1546
1531 1534 1536 1538 1540 1541 1542 1544 1545 1546 1547 1548 1548 1549 1550 1550 1550 1551 1552 1552 1553 1553 1553 1554 1555 1555 1556 1556 1556 1556 1557 1556 1557 1558 1559 1558 1557 1556 1555 1554 1552 1551 1549
1529 1532 1534 1537 1539 1540 1542 1543 1545 1546 1547 1548 1549 1549 1550 1550 1550 1551 1552 1552 1553 1553 1554 1554 1555 1555 1556 1556 1556 1556 1556 1557 1557 1557 1558 1559 1558 1557 1556 1555 1554 1553 1551
1528 1531 1533 1535 1538 1540 1541 1543 1544 1546 1547 1548 1548 1549 1550 1550 1551 1551 1552 1553 1553 1554 1554 1555 1555 1556 1556 1556 1556 1557 1557 1557 1557 1557 1557 1558 1558 1559 1558 1557 1556 1555 1554